Regional Weather Roundup
Issued by NWS

Home | Current Version | Previous Version | Text Only | Print | Product List | Glossary On
Versions: 1 2 3 4 5 6 7 8 9 10 11 12 13 14 15 16 17 18 19 20 21 22 23 24 25 26 27 28 29 30 31 32 33 34 35 36 37 38 39 40 41 42 43 44 45 46 47 48 49 50
415
ASUS44 KEWX 241811
RWRTX
SOUTH TEXAS REGIONAL WEATHER ROUNDUP
NATIONAL WEATHER SERVICE AUSTIN/SAN ANTONIO TX
100 PM CDT TUE MAY 24 2016

NOTE: "FAIR" INDICATED FEW OR NO CLOUDS BELOW 12,000 FEET WITH NO
SIGNIFICANT WEATHER AND/OR OBSTRUCTIONS TO VISIBILITY.

* - THESE STATIONS ARE NOT NWS OR FAA STATIONS...AND ARE NOT SUBJECT
    TO NWS AND FAA QUALITY CONTROL.

TXZ171-172-183>190-241900-
TEXAS HILL COUNTRY AND EDWARDS PLATEAU

CITY           SKY/WX    TMP DP  RH WIND       PRES   REMARKS
JUNCTION       CLOUDY    78  70  76 S13       29.96R
6HR MIN TEMP:  73; 6HR MAX TEMP:  79;

*LLANO         CLOUDY    82  72  69 S10       29.99R
BURNET         CLOUDY    80  69  69 SE7       29.99S
6HR MIN TEMP:  72; 6HR MAX TEMP:  83; 6HR PCP: TRACE;

*HORSESHOE BAY CLOUDY    82  71  69 S7        29.97S
6HR MIN TEMP:  72; 6HR MAX TEMP:  83;

*KERRVILLE     CLOUDY    76  72  87 S10       29.98R
6HR MIN TEMP:  72; 6HR MAX TEMP:  79;

*FREDERICKSBRG CLOUDY    77  68  75 S9G16     29.98S
6HR MIN TEMP:  70; 6HR MAX TEMP:  78;

*ROCKSPRINGS   CLOUDY    75  72  88 SE12G17   30.00S FOG
*BOERNE STAGE  CLOUDY    77  72  83 SE6       29.98S
*CASTROVILLE   CLOUDY    82  72  71 S7        29.96R
HONDO          CLOUDY    80  73  79 SE15      29.96R
6HR MIN TEMP:  74; 6HR MAX TEMP:  80;

*UVALDE        CLOUDY    80  74  81 SE10      29.94R
6HR MIN TEMP:  74; 6HR MAX TEMP:  80;

DEL RIO        PTSUNNY   85  73  67 SE12      29.89S HX  91
6HR MIN TEMP:  73; 6HR MAX TEMP:  85;

LAUGHLIN AFB   PTSUNNY   84  75  73 SE13      29.90S HX  92
6HR MIN TEMP:  75; 6HR MAX TEMP:  84;

CARRIZO SPRGS  CLOUDY    81  75  83 SE6       29.90S
*EAGLE PASS    CLOUDY    86  75  70 SE9G16    29.90R HX  95
$$

TXZ173-191>194-202-209-217>225-228-241900-
CENTRAL AND SOUTH CENTRAL TEXAS

CITY           SKY/WX    TMP DP  RH WIND       PRES   REMARKS
GEORGETOWN     PTSUNNY   84  70  61 SE12G18   29.96S
AUSTIN/BERGSTM CLOUDY    84  73  69 SE10      29.96R HX  90
6HR MIN TEMP:  75; 6HR MAX TEMP:  85;

AUSTIN/MABRY   CLOUDY    85  74  69 VRB6      29.97S HX  92
6HR MIN TEMP:  75; 6HR MAX TEMP:  85;

*AUSTIN/EXEC   CLOUDY    84  73  70 S8G16     29.97S HX  91
*LAGO VISTA    CLOUDY    83  71  68 SE7       29.99S
6HR MIN TEMP:  73; 6HR MAX TEMP:  83;

SAN MARCOS     CLOUDY    81  73  78 SE7       29.97R
NEW BRAUNFELS  CLOUDY    85  74  69 SE10      29.94S HX  92
6HR MIN TEMP:  74; 6HR MAX TEMP:  86;

RANDOLPH AFB   PTSUNNY   83  75  79 SE10      29.94S HX  90
6HR MIN TEMP:  74; 6HR MAX TEMP:  84;

PT SAN ANTONIO CLOUDY    83  74  72 SE13      29.93S HX  90
6HR MIN TEMP:  75; 6HR MAX TEMP:  83;

SAN ANTONIO    CLOUDY    82  73  74 SE13      29.95R
6HR MIN TEMP:  75; 6HR MAX TEMP:  82;

STINSON FIELD  CLOUDY    84  74  71 SE7       29.92R HX  91
6HR MIN TEMP:  77; 6HR MAX TEMP:  85;

*PLEASANTON    CLOUDY    85  73  66 SE8       29.93S HX  92
6HR MIN TEMP:  76; 6HR MAX TEMP:  85;

*LA GRANGE       N/A     87  77  72 SE9G16    29.95F HX  99
6HR MIN TEMP:  77; 6HR MAX TEMP:  87;

*GIDDINGS      MOSUNNY   86  73  63 SE12G18   30.01F HX  93
6HR MIN TEMP:  74; 6HR MAX TEMP:  86;

*GONZALES      CLOUDY    85  77  76 SE6       29.95S HX  95
6HR MIN TEMP:  76; 6HR MAX TEMP:  87;

$$

TXZ163>164-176>182-195>201-210>213-226-227-235-241900-
SOUTHEAST TEXAS

CITY           SKY/WX    TMP DP  RH WIND       PRES   REMARKS
COLLEGE STN    MOSUNNY   85  74  69 SE14      29.98F HX  92
6HR MIN TEMP:  72; 6HR MAX TEMP:  86; 6HR PCP: TRACE;

*BRYAN         MOSUNNY   85  76  73 SE10      30.00F HX  94
6HR MIN TEMP:  71; 6HR MAX TEMP:  85;

*CALDWELL      MOSUNNY   84  73  70 SE14      30.00F HX  91
*CROCKETT      MOSUNNY   84  72  65 SE10      30.04F
*BRENHAM       MOSUNNY   88  75  65 SE10G16   29.99F HX  97
6HR MIN TEMP:  76; 6HR MAX TEMP:  88;

HUNTSVILLE     CLOUDY    85  73  67 VRB6      30.01F HX  91
6HR MIN TEMP:  74; 6HR MAX TEMP:  85;

CONROE         PTSUNNY   87  73  62 SE12G18   30.01F HX  94
6HR MIN TEMP:  73; 6HR MAX TEMP:  87; 6HR PCP: TRACE;

HOUSTON BUSH   PTSUNNY   83  75  77 SE16      30.01S HX  90
6HR MIN TEMP:  74; 6HR MAX TEMP:  84;

HOUSTON HOBBY  PTSUNNY   87  74  64 SE8       30.00S HX  95
6HR MIN TEMP:  76; 6HR MAX TEMP:  87;

*HOUSTON SW AP CLOUDY    84  76  75 SE10      30.01R HX  93
6HR MIN TEMP:  74; 6HR MAX TEMP:  85;

PEARLAND       PTSUNNY   87  75  67 SE14      30.02S HX  96
6HR MIN TEMP:  77; 6HR MAX TEMP:  87;

HOUSTON HOOKS  PTSUNNY   86  74  67 SE9       30.00S HX  94
6HR MIN TEMP:  75; 6HR MAX TEMP:  87; 6HR PCP: TRACE;

ELLINGTON FLD  PTSUNNY   84  72  65 E13       30.02S
SUGAR LAND     PTSUNNY   84  73  69 SE16      30.00R HX  90
6HR MIN TEMP:  75; 6HR MAX TEMP:  86;

*HOUSTON EXEC  PTSUNNY   86  75  70 SE10      30.01S HX  95
*CLEVELAND MUN CLOUDY    85  77  76 SE3       30.03S HX  96
6HR MIN TEMP:  73; 6HR MAX TEMP:  85;

*WHARTON       PTSUNNY   86  76  71 SE10      29.98F HX  96
6HR MIN TEMP:  75; 6HR MAX TEMP:  86;

*COLUMBUS      CLOUDY    86  76  71 SE10      29.98S HX  96
6HR MIN TEMP:  74; 6HR MAX TEMP:  86;

*EAGLE LAKE    CLOUDY    84  76  77 SE9       29.98S HX  93
6HR MIN TEMP:  74; 6HR MAX TEMP:  87;

$$

TXZ214>216-236>238-241900-
THE UPPER TEXAS COAST

CITY           SKY/WX    TMP DP  RH WIND       PRES   REMARKS
*ORANGE        PTSUNNY   85  72  64 SE9G16    30.05F HX  92
6HR MIN TEMP:  75; 6HR MAX TEMP:  85;

PORT ARTHUR    CLOUDY    85  75  72 SE13      30.03S HX  93
6HR MIN TEMP:  76; 6HR MAX TEMP:  86;

GALVESTON      MOSUNNY   84  79  85 E16       30.01S HX  96
6HR MIN TEMP:  77; 6HR MAX TEMP:  84;

ANGLETON       PTSUNNY   86  77  74 SE13G21   30.00R HX  97
6HR MIN TEMP:  78; 6HR MAX TEMP:  87;

*BAY CITY      CLOUDY    86  77  74 SE10G17   30.00R HX  97
PALACIOS       PTSUNNY   86  76  71 SE15      29.97S HX  96
6HR MIN TEMP:  77; 6HR MAX TEMP:  86;

$$

TXZ229>234-239>247-241900-
TEXAS COASTAL BEND AND RIO GRANDE PLAINS

CITY           SKY/WX    TMP DP  RH WIND       PRES   REMARKS
VICTORIA       CLOUDY    85  74  69 SE15      29.96R HX  92
6HR MIN TEMP:  76; 6HR MAX TEMP:  86;

*BEEVILLE      PTSUNNY   88  79  74 SE12      29.92S HX 102
6HR MIN TEMP:  70; 6HR MAX TEMP:  88;

ROCKPORT       CLOUDY    85  76  74 SE15      29.93S HX  94
6HR MIN TEMP:  80; 6HR MAX TEMP:  86;

*PORT ARANSAS  CLOUDY    84  79  86 SE15      29.93S HX  96
6HR MIN TEMP:  79; 6HR MAX TEMP:  85;

*PORT LAVACA   CLOUDY    85  78  79 SE13      29.96F HX  97
6HR MIN TEMP:  77; 6HR MAX TEMP:  86;

*INGLESIDE     PTSUNNY   74  66  76 SE17      29.93R
CORPUS CHRISTI PTSUNNY   86  77  74 S18G30    29.91S HX  97
6HR MIN TEMP:  80; 6HR MAX TEMP:  87;

CORPUS NAS     PTSUNNY   86  80  82 SE17      29.92R HX 101
6HR MIN TEMP:  80; 6HR MAX TEMP:  87;

*ROBSTOWN      CLOUDY    88  78  71 SE16      29.91S HX 101
6HR MIN TEMP:  79; 6HR MAX TEMP:  88;

ALICE          CLOUDY    88  76  67 SE14G23   29.89S HX  99
6HR MIN TEMP:  77; 6HR MAX TEMP:  89;

KINGSVILLE NAS CLOUDY    88  80  77 SE17      29.90S HX 104
6HR MIN TEMP:  79; 6HR MAX TEMP:  89;

COTULLA        CLOUDY    85  75  72 SE7       29.91R HX  93
6HR MIN TEMP:  77; 6HR MAX TEMP:  85;

*FAITH RANCH     N/A    N/A N/A N/A MISG        N/A
LAREDO         CLOUDY    85  76  74 S10       29.90R HX  94
6HR MIN TEMP:  77; 6HR MAX TEMP:  85;

$$

TXZ248>255-241900-
DEEP SOUTH TEXAS

CITY           SKY/WX    TMP DP  RH WIND       PRES   REMARKS
BROWNSVILLE    CLOUDY    88  77  69 SE21G26   29.91S HX 100
6HR MIN TEMP:  79; 6HR MAX TEMP:  88;

PORT ISABEL    CLOUDY    89  76  65 SE17G25   29.90S HX 100
6HR MIN TC1F1C2F2C3F3C4F4C5F5C6F6C7M1C8M2C9!



USA.gov is the U.S. government's official web portal to all federal, state and local government web resources and services.